Location: Bu�n Treun
(12.1333°N, 108.3167°E)
Time: 22:26:32
(UTC+00:00)

BEESAT - Pass Details

Date: 05 October 2021
Orbit: 699 x 709 km, 98.6° (Epoch: 19 October)

Event Time Altitude Azimuth Distance (km) Brightness Sun altitude
Exits shadow 11:09:04 - 56° (ENE) 2,360 ? -9.3°
Reaches altitude 10° 11:09:53 10° 64° (ENE) 2,157 ? -9.5°
Maximum altitude 11:12:38 15° 100° (E) 1,815 ? -10.2°
Drops below altitude 10° 11:15:23 10° 136° (SE) 2,159 ? -10.9°
Sets 11:18:30 0° 158° (SSE) 3,078 ? -11.6°
